SXS74T LTFM-LSZH

Flight info

Callsign SXS74T
Flight time 2h 39m
Altitude 36000
Route VADEN1E/36 VADEN DCT BAKLO DCT XANEX DCT BESLI DCT UTEKA DCT BEDOX DCT ERKIR DCT KPT L856 NEGRA
Aircraft B38M/M-SDE1FGHILORVWXY/HB1

Departure

Time 2026-05-05 17:17
Airport İstanbul Airport (LTFM)

Arrival

Time 2026-05-05 19:56
Airport Zürich Airport (LSZH)
Time Latitude Longitude Altitude Speed Heading
2026-05-05 16:57 41.25471 28.74901 333 ft 0 kts 269°
2026-05-05 17:09 41.25471 28.74903 336 ft 2 kts 269°
2026-05-05 17:09 41.25471 28.74933 335 ft 4 kts 274°
2026-05-05 17:09 41.25463 28.74960 334 ft 4 kts 331°
2026-05-05 17:09 41.25439 28.74966 332 ft 2 kts 359°
2026-05-05 17:10 41.25434 28.74967 333 ft 0 kts 359°
2026-05-05 17:13 41.25442 28.74966 333 ft 4 kts 359°
2026-05-05 17:13 41.25506 28.74965 336 ft 14 kts 358°
2026-05-05 17:13 41.25613 28.74962 332 ft 14 kts
2026-05-05 17:14 41.25646 28.75059 336 ft 14 kts 89°
2026-05-05 17:14 41.25648 28.75203 336 ft 18 kts 89°
2026-05-05 17:14 41.25661 28.75384 336 ft 20 kts 52°
2026-05-05 17:14 41.25793 28.75402 333 ft 20 kts 359°
2026-05-05 17:15 41.25938 28.75399 336 ft 22 kts 359°
2026-05-05 17:15 41.26093 28.75395 335 ft 23 kts 359°
2026-05-05 17:15 41.26235 28.75410 336 ft 17 kts 43°
2026-05-05 17:15 41.26249 28.75564 336 ft 18 kts 88°
2026-05-05 17:16 41.26255 28.75696 332 ft 3 kts 62°
2026-05-05 17:16 41.26283 28.75693 333 ft 9 kts 319°
2026-05-05 17:16 41.26337 28.75666 336 ft 0 kts 358°
2026-05-05 17:16 41.26385 28.75665 333 ft 34 kts 359°
2026-05-05 17:17 41.26898 28.75654 335 ft 111 kts 359°
2026-05-05 17:17 41.27896 28.75635 360 ft 171 kts 359°
2026-05-05 17:17 41.29155 28.75621 972 ft 184 kts 359°
2026-05-05 17:17 41.30387 28.75714 2089 ft 179 kts 15°
2026-05-05 17:18 41.31525 28.76564 2611 ft 201 kts 40°
2026-05-05 17:18 41.32548 28.77934 3096 ft 221 kts 37°
2026-05-05 17:18 41.33905 28.79082 3681 ft 235 kts 28°
2026-05-05 17:18 41.35298 28.80168 4807 ft 237 kts 28°
2026-05-05 17:19 41.36774 28.81323 5492 ft 253 kts 28°
2026-05-05 17:19 41.38377 28.82210 6502 ft 249 kts
2026-05-05 17:19 41.40113 28.82191 7418 ft 253 kts 356°
2026-05-05 17:19 41.41878 28.82027 8348 ft 254 kts 356°
2026-05-05 17:20 41.43647 28.81844 9261 ft 258 kts 356°
2026-05-05 17:20 41.45451 28.81645 10122 ft 262 kts 355°
2026-05-05 17:20 41.47317 28.81418 10650 ft 278 kts 353°
2026-05-05 17:20 41.49183 28.80568 10990 ft 301 kts 330°
2026-05-05 17:21 41.50738 28.78555 11320 ft 327 kts 307°
2026-05-05 17:21 41.51798 28.75745 11627 ft 349 kts 298°
2026-05-05 17:21 41.52855 28.72757 12066 ft 362 kts 299°
2026-05-05 17:22 41.55053 28.66670 13492 ft 369 kts 300°
2026-05-05 17:22 41.56176 28.63578 14154 ft 372 kts 300°
2026-05-05 17:22 41.57314 28.60451 14746 ft 376 kts 300°
2026-05-05 17:22 41.58458 28.57303 15381 ft 379 kts 299°
2026-05-05 17:23 41.59614 28.54120 15966 ft 382 kts 299°
2026-05-05 17:23 41.60764 28.50950 16556 ft 386 kts 299°
2026-05-05 17:23 41.61938 28.47707 17126 ft 389 kts 299°
2026-05-05 17:23 41.63122 28.44435 17700 ft 393 kts 299°
2026-05-05 17:24 41.64316 28.41132 18265 ft 396 kts 298°
2026-05-05 17:24 41.65521 28.37795 18755 ft 400 kts 298°
2026-05-05 17:24 41.66734 28.34431 19219 ft 403 kts 298°
2026-05-05 17:24 41.67957 28.31040 19712 ft 405 kts 299°
2026-05-05 17:25 41.69179 28.27636 20221 ft 407 kts 298°
2026-05-05 17:25 41.69998 28.25359 20525 ft 410 kts 298°
2026-05-05 17:25 41.71654 28.20742 21147 ft 414 kts 298°
2026-05-05 17:25 41.72887 28.17300 21587 ft 417 kts 298°
2026-05-05 17:26 41.74145 28.13785 22034 ft 420 kts 298°
2026-05-05 17:26 41.75411 28.10242 22473 ft 423 kts 298°
2026-05-05 17:26 41.76683 28.06675 22916 ft 426 kts 298°
2026-05-05 17:26 41.77965 28.03078 23349 ft 429 kts 298°
2026-05-05 17:27 41.79256 27.99452 23745 ft 432 kts 298°
2026-05-05 17:27 41.80553 27.95805 24090 ft 435 kts 297°
2026-05-05 17:27 41.81859 27.92125 24442 ft 438 kts 297°
2026-05-05 17:27 41.83154 27.88472 24788 ft 441 kts 297°
2026-05-05 17:28 41.84473 27.84747 25125 ft 444 kts 297°
2026-05-05 17:28 41.85800 27.80993 25461 ft 447 kts 297°
2026-05-05 17:28 41.87134 27.77216 25788 ft 449 kts 297°
2026-05-05 17:28 41.88471 27.73426 26189 ft 449 kts 297°
2026-05-05 17:29 41.89809 27.69622 26512 ft 452 kts 297°
2026-05-05 17:29 41.91156 27.65791 26811 ft 455 kts 297°
2026-05-05 17:29 41.92509 27.61939 27135 ft 458 kts 297°
2026-05-05 17:29 41.93871 27.58052 27350 ft 463 kts 296°
2026-05-05 17:30 41.95303 27.54177 27645 ft 464 kts 301°
2026-05-05 17:30 41.96919 27.50412 27942 ft 466 kts 301°
2026-05-05 17:30 41.98522 27.46612 28308 ft 467 kts 301°
2026-05-05 17:30 42.00083 27.42865 28708 ft 467 kts 301°
2026-05-05 17:31 42.01666 27.39043 29080 ft 467 kts 301°
2026-05-05 17:31 42.03242 27.35229 29486 ft 467 kts 300°
2026-05-05 17:31 42.04819 27.31404 29875 ft 467 kts 300°
2026-05-05 17:31 42.06393 27.27583 30245 ft 467 kts 300°
2026-05-05 17:32 42.07963 27.23767 30585 ft 466 kts 300°
2026-05-05 17:32 42.09528 27.19960 31001 ft 462 kts 301°
2026-05-05 17:32 42.11072 27.16197 31524 ft 457 kts 301°
2026-05-05 17:32 42.12604 27.12458 31951 ft 454 kts 301°
2026-05-05 17:33 42.14106 27.08787 32296 ft 453 kts 301°
2026-05-05 17:33 42.15625 27.05072 32630 ft 453 kts 301°
2026-05-05 17:33 42.17141 27.01357 32960 ft 452 kts 301°
2026-05-05 17:33 42.18652 26.97652 33275 ft 451 kts 301°
2026-05-05 17:34 42.20162 26.93944 33603 ft 449 kts 301°
2026-05-05 17:34 42.21654 26.90274 34070 ft 445 kts 301°
2026-05-05 17:34 42.23136 26.86624 34408 ft 442 kts 301°
2026-05-05 17:34 42.24611 26.82988 34652 ft 442 kts 301°
2026-05-05 17:35 42.26078 26.79369 34905 ft 441 kts 301°
2026-05-05 17:35 42.27556 26.75715 35135 ft 441 kts 301°
2026-05-05 17:35 42.29026 26.72079 35374 ft 441 kts 301°
2026-05-05 17:35 42.30491 26.68450 35604 ft 440 kts 301°
2026-05-05 17:36 42.31954 26.64821 35849 ft 439 kts 301°
2026-05-05 17:36 42.33410 26.61203 36038 ft 439 kts 301°
2026-05-05 17:36 42.34850 26.57623 36031 ft 439 kts 301°
2026-05-05 17:37 42.37747 26.50407 36024 ft 437 kts 301°
2026-05-05 17:37 42.40642 26.43177 36020 ft 437 kts 301°
2026-05-05 17:38 42.43530 26.35945 36016 ft 436 kts 301°
2026-05-05 17:38 42.46396 26.28753 36024 ft 437 kts 301°
2026-05-05 17:39 42.49279 26.21499 36018 ft 437 kts 301°
2026-05-05 17:39 42.52159 26.14231 36014 ft 438 kts 301°
2026-05-05 17:40 42.55029 26.06974 36013 ft 435 kts 301°
2026-05-05 17:40 42.57875 25.99758 36015 ft 434 kts 301°
2026-05-05 17:41 42.60702 25.92574 36007 ft 434 kts 301°
2026-05-05 17:41 42.63541 25.85339 36014 ft 435 kts 301°
2026-05-05 17:42 42.66375 25.78101 36008 ft 434 kts 301°
2026-05-05 17:42 42.69204 25.70857 36021 ft 434 kts 300°
2026-05-05 17:43 42.72005 25.63666 36022 ft 433 kts 300°
2026-05-05 17:43 42.74821 25.56416 36010 ft 433 kts 300°
2026-05-05 17:44 42.77632 25.49165 36008 ft 433 kts 300°
2026-05-05 17:44 42.80429 25.41928 36008 ft 432 kts 300°
2026-05-05 17:45 42.83225 25.34677 36011 ft 432 kts 300°
2026-05-05 17:45 42.85997 25.27468 36004 ft 432 kts 300°
2026-05-05 17:46 42.88784 25.20205 36013 ft 432 kts 300°
2026-05-05 17:46 42.91566 25.12935 36012 ft 432 kts 300°
2026-05-05 17:47 42.94345 25.05653 36026 ft 432 kts 300°
2026-05-05 17:47 42.97108 24.98396 36012 ft 434 kts 300°
2026-05-05 17:48 42.99887 24.91079 36008 ft 433 kts 300°
2026-05-05 17:48 43.02652 24.83778 36016 ft 433 kts 300°
2026-05-05 17:49 43.05414 24.76467 36010 ft 433 kts 300°
2026-05-05 17:49 43.07709 24.70378 36019 ft 433 kts 300°
2026-05-05 17:50 43.10902 24.61882 36022 ft 431 kts 300°
2026-05-05 17:50 43.13641 24.54577 36018 ft 431 kts 300°
2026-05-05 17:51 43.16371 24.47273 36002 ft 431 kts 300°
2026-05-05 17:51 43.19097 24.39963 36008 ft 431 kts 299°
2026-05-05 17:52 43.21357 24.33889 36007 ft 430 kts 299°
2026-05-05 17:52 43.24509 24.25394 36004 ft 430 kts 299°
2026-05-05 17:53 43.26758 24.19319 36004 ft 430 kts 299°
2026-05-05 17:53 43.29459 24.12000 36000 ft 430 kts 299°
2026-05-05 17:54 43.32155 24.04681 35998 ft 429 kts 299°
2026-05-05 17:54 43.34842 23.97366 35994 ft 429 kts 299°
2026-05-05 17:55 43.37525 23.90042 35995 ft 429 kts 299°
2026-05-05 17:55 43.40200 23.82719 35993 ft 429 kts 299°
2026-05-05 17:56 43.42856 23.75432 35999 ft 429 kts 298°
2026-05-05 17:56 43.45526 23.68085 36006 ft 429 kts 298°
2026-05-05 17:57 43.48193 23.60726 36001 ft 430 kts 298°
2026-05-05 17:57 43.50858 23.53356 35998 ft 430 kts 298°
2026-05-05 17:58 43.53500 23.46028 35994 ft 430 kts 298°
2026-05-05 17:58 43.56162 23.38626 35993 ft 431 kts 298°
2026-05-05 17:59 43.58819 23.31217 35994 ft 431 kts 298°
2026-05-05 17:59 43.61471 23.23802 35993 ft 431 kts 298°
2026-05-05 18:00 43.64119 23.16379 35986 ft 431 kts 297°
2026-05-05 18:00 43.66761 23.08954 35995 ft 431 kts 297°
2026-05-05 18:01 43.69381 23.01568 35995 ft 431 kts 297°
2026-05-05 18:01 43.72014 22.94128 35993 ft 431 kts 297°
2026-05-05 18:02 43.74644 22.86674 35988 ft 430 kts 297°
2026-05-05 18:02 43.77258 22.79248 35982 ft 429 kts 297°
2026-05-05 18:03 43.79850 22.71862 35982 ft 429 kts 297°
2026-05-05 18:03 43.82455 22.64419 35983 ft 430 kts 297°
2026-05-05 18:04 43.85054 22.56972 35975 ft 429 kts 297°
2026-05-05 18:04 43.87642 22.49539 35979 ft 428 kts 297°
2026-05-05 18:05 43.90208 22.42148 35986 ft 428 kts 297°
2026-05-05 18:05 43.93042 22.34910 35998 ft 428 kts 300°
2026-05-05 18:06 43.95958 22.27696 35981 ft 430 kts 300°
2026-05-05 18:06 43.98867 22.20438 35984 ft 430 kts 300°
2026-05-05 18:07 44.01752 22.13219 35987 ft 430 kts 300°
2026-05-05 18:07 44.04647 22.05957 35988 ft 430 kts 300°
2026-05-05 18:08 44.07539 21.98682 35988 ft 430 kts 300°
2026-05-05 18:08 44.10426 21.91403 35987 ft 429 kts 300°
2026-05-05 18:09 44.13283 21.84179 35985 ft 429 kts 300°
2026-05-05 18:09 44.16155 21.76898 35986 ft 429 kts 300°
2026-05-05 18:10 44.19022 21.69612 35978 ft 429 kts 299°
2026-05-05 18:10 44.21878 21.62336 35981 ft 427 kts 299°
2026-05-05 18:11 44.24703 21.55118 35968 ft 427 kts 299°
2026-05-05 18:11 44.27545 21.47840 35968 ft 427 kts 299°
2026-05-05 18:12 44.30382 21.40555 35964 ft 427 kts 299°
2026-05-05 18:12 44.33213 21.33266 35950 ft 426 kts 298°
2026-05-05 18:13 44.36014 21.26038 35958 ft 428 kts 298°
2026-05-05 18:13 44.38844 21.18712 35948 ft 428 kts 298°
2026-05-05 18:14 44.41671 21.11378 35947 ft 428 kts 298°
2026-05-05 18:14 44.44493 21.04038 35941 ft 428 kts 298°
2026-05-05 18:15 44.47280 20.96769 35946 ft 427 kts 298°
2026-05-05 18:15 44.50081 20.89442 35944 ft 427 kts 298°
2026-05-05 18:16 44.52878 20.82110 35946 ft 427 kts 298°
2026-05-05 18:16 44.55670 20.74768 35944 ft 427 kts 297°
2026-05-05 18:17 44.58439 20.67469 35940 ft 427 kts 297°
2026-05-05 18:17 44.61221 20.60116 35942 ft 427 kts 297°
2026-05-05 18:18 44.63998 20.52757 35941 ft 427 kts 297°
2026-05-05 18:18 44.66775 20.45381 35939 ft 427 kts 297°
2026-05-05 18:19 44.69543 20.38006 35938 ft 427 kts 297°
2026-05-05 18:19 44.72292 20.30661 35939 ft 427 kts 297°
2026-05-05 18:20 44.75058 20.23255 35942 ft 428 kts 297°
2026-05-05 18:20 44.77828 20.15814 35942 ft 430 kts 297°
2026-05-05 18:21 44.80600 20.08351 35939 ft 431 kts 297°
2026-05-05 18:21 44.83374 20.00858 35940 ft 431 kts 297°
2026-05-05 18:22 44.86127 19.93406 35945 ft 431 kts 297°
2026-05-05 18:22 44.88891 19.85901 35945 ft 432 kts 296°
2026-05-05 18:23 44.91653 19.78382 35946 ft 432 kts 296°
2026-05-05 18:23 44.94392 19.70904 35947 ft 432 kts 296°
2026-05-05 18:24 44.97145 19.63368 35944 ft 432 kts 296°
2026-05-05 18:24 44.99892 19.55828 35952 ft 432 kts 296°
2026-05-05 18:25 45.02634 19.48279 35962 ft 432 kts 296°
2026-05-05 18:25 45.05367 19.40735 35953 ft 430 kts 296°
2026-05-05 18:26 45.08073 19.33246 35952 ft 430 kts 296°
2026-05-05 18:26 45.10791 19.25702 35953 ft 430 kts 296°
2026-05-05 18:27 45.13503 19.18154 35961 ft 430 kts 296°
2026-05-05 18:27 45.16211 19.10595 35960 ft 430 kts 296°
2026-05-05 18:28 45.20245 18.99296 35956 ft 430 kts 295°
2026-05-05 18:28 45.22940 18.91722 35953 ft 430 kts 295°
2026-05-05 18:29 45.25633 18.84134 35950 ft 430 kts 295°
2026-05-05 18:29 45.28315 18.76553 35948 ft 429 kts 295°
2026-05-05 18:30 45.30970 18.69027 35973 ft 429 kts 295°
2026-05-05 18:30 45.33637 18.61447 35972 ft 429 kts 295°
2026-05-05 18:31 45.36302 18.53850 35972 ft 429 kts 295°
2026-05-05 18:31 45.38957 18.46261 35972 ft 428 kts 295°
2026-05-05 18:32 45.41585 18.38726 35976 ft 428 kts 295°
2026-05-05 18:32 45.44224 18.31142 35973 ft 428 kts 295°
2026-05-05 18:33 45.46858 18.23547 35975 ft 428 kts 295°
2026-05-05 18:33 45.49487 18.15948 35972 ft 428 kts 295°
2026-05-05 18:34 45.52091 18.08398 35979 ft 427 kts 295°
2026-05-05 18:34 45.54716 18.00765 35974 ft 431 kts 295°
2026-05-05 18:35 45.57351 17.93082 35968 ft 430 kts 294°
2026-05-05 18:35 45.59977 17.85402 35970 ft 431 kts 294°
2026-05-05 18:36 45.62592 17.77731 35969 ft 429 kts 294°
2026-05-05 18:36 45.65178 17.70124 35968 ft 429 kts 294°
2026-05-05 18:37 45.67780 17.62450 35975 ft 429 kts 294°
2026-05-05 18:37 45.70373 17.54778 35972 ft 428 kts 294°
2026-05-05 18:38 45.72960 17.47101 35973 ft 428 kts 294°
2026-05-05 18:38 45.75516 17.39495 35971 ft 427 kts 294°
2026-05-05 18:39 45.78088 17.31821 35971 ft 427 kts 294°
2026-05-05 18:39 45.80653 17.24143 35970 ft 427 kts 294°
2026-05-05 18:40 45.83210 17.16467 35970 ft 427 kts 294°
2026-05-05 18:40 45.85761 17.08786 35962 ft 426 kts 294°
2026-05-05 18:41 45.88284 17.01168 35965 ft 426 kts 294°
2026-05-05 18:41 45.90819 16.93492 35963 ft 426 kts 294°
2026-05-05 18:42 45.93353 16.85796 35967 ft 427 kts 294°
2026-05-05 18:42 45.95889 16.78069 35965 ft 428 kts 294°
2026-05-05 18:43 45.98403 16.70388 35963 ft 428 kts 294°
2026-05-05 18:43 46.00930 16.62644 35960 ft 428 kts 293°
2026-05-05 18:44 46.03451 16.54896 35960 ft 428 kts 293°
2026-05-05 18:44 46.05969 16.47135 35961 ft 428 kts 293°
2026-05-05 18:45 46.08473 16.39402 35960 ft 430 kts 293°
2026-05-05 18:45 46.10995 16.31589 35956 ft 430 kts 293°
2026-05-05 18:46 46.13509 16.23777 35958 ft 430 kts 293°
2026-05-05 18:46 46.16022 16.15946 35953 ft 430 kts 293°
2026-05-05 18:47 46.18527 16.08118 35961 ft 431 kts 292°
2026-05-05 18:47 46.21021 16.00302 35953 ft 431 kts 292°
2026-05-05 18:48 46.23526 15.92427 35951 ft 431 kts 292°
2026-05-05 18:48 46.26025 15.84548 35951 ft 431 kts 292°
2026-05-05 18:49 46.28757 15.76822 35958 ft 432 kts 295°
2026-05-05 18:49 46.31498 15.69140 35944 ft 433 kts 295°
2026-05-05 18:50 46.34252 15.61392 35945 ft 433 kts 295°
2026-05-05 18:50 46.37001 15.53637 35939 ft 433 kts 295°
2026-05-05 18:51 46.39744 15.45876 35942 ft 433 kts 295°
2026-05-05 18:51 46.42486 15.38092 35933 ft 434 kts 295°
2026-05-05 18:52 46.45209 15.30345 35925 ft 434 kts 294°
2026-05-05 18:52 46.47938 15.22554 35933 ft 434 kts 294°
2026-05-05 18:53 46.50672 15.14726 35944 ft 434 kts 294°
2026-05-05 18:53 46.53398 15.06897 35953 ft 435 kts 294°
2026-05-05 18:54 46.56111 14.99084 35963 ft 437 kts 294°
2026-05-05 18:54 46.58842 14.91195 35938 ft 436 kts 294°
2026-05-05 18:55 46.61564 14.83309 35942 ft 437 kts 294°
2026-05-05 18:55 46.64281 14.75414 35949 ft 436 kts 294°
2026-05-05 18:56 46.66975 14.67561 35941 ft 438 kts 294°
2026-05-05 18:56 46.69696 14.59608 35939 ft 439 kts 294°
2026-05-05 18:57 46.72410 14.51648 35937 ft 439 kts 294°
2026-05-05 18:57 46.75116 14.43688 35939 ft 439 kts 294°
2026-05-05 18:58 46.77801 14.35767 35948 ft 439 kts 294°
2026-05-05 18:58 46.80505 14.27764 35944 ft 440 kts 294°
2026-05-05 18:59 46.83204 14.19756 35941 ft 440 kts 294°
2026-05-05 18:59 46.85897 14.11734 35918 ft 440 kts 293°
2026-05-05 19:00 46.88588 14.03698 35928 ft 440 kts 293°
2026-05-05 19:00 46.91248 13.95728 35945 ft 438 kts 292°
2026-05-05 19:01 46.93914 13.87718 35927 ft 438 kts 292°
2026-05-05 19:01 46.96572 13.79706 35933 ft 438 kts 292°
2026-05-05 19:02 46.99222 13.71691 35934 ft 439 kts 293°
2026-05-05 19:02 47.01869 13.63664 35941 ft 439 kts 292°
2026-05-05 19:03 47.04516 13.55610 35929 ft 438 kts 292°
2026-05-05 19:03 47.07156 13.47551 35931 ft 438 kts 292°
2026-05-05 19:04 47.09789 13.39489 35927 ft 438 kts 292°
2026-05-05 19:04 47.12419 13.31413 35931 ft 439 kts 292°
2026-05-05 19:05 47.15026 13.23378 35906 ft 438 kts 291°
2026-05-05 19:05 47.17642 13.15291 35900 ft 438 kts 291°
2026-05-05 19:06 47.20255 13.07194 35870 ft 438 kts 291°
2026-05-05 19:06 47.22855 12.99102 35898 ft 438 kts 291°
2026-05-05 19:07 47.25438 12.91043 35891 ft 438 kts 291°
2026-05-05 19:07 47.28036 12.82911 35873 ft 440 kts 291°
2026-05-05 19:08 47.30634 12.74751 35876 ft 439 kts 290°
2026-05-05 19:08 47.33223 12.66595 35861 ft 439 kts 290°
2026-05-05 19:09 47.35787 12.58491 35875 ft 440 kts 290°
2026-05-05 19:09 47.38367 12.50312 35862 ft 440 kts 290°
2026-05-05 19:10 47.40947 12.42104 35852 ft 441 kts 290°
2026-05-05 19:10 47.43521 12.33897 35852 ft 441 kts 290°
2026-05-05 19:11 47.45987 12.25617 35841 ft 436 kts 283°
2026-05-05 19:11 47.46545 12.21282 35852 ft 427 kts 271°
2026-05-05 19:11 47.46919 12.16965 35836 ft 431 kts 275°
2026-05-05 19:12 47.47892 12.08203 35830 ft 433 kts 275°
2026-05-05 19:12 47.48890 11.99435 35844 ft 432 kts 275°
2026-05-05 19:13 47.49883 11.90685 35835 ft 432 kts 275°
2026-05-05 19:13 47.50871 11.81928 35834 ft 432 kts 275°
2026-05-05 19:14 47.51852 11.73165 35863 ft 432 kts 275°
2026-05-05 19:14 47.52825 11.64407 35835 ft 431 kts 275°
2026-05-05 19:15 47.53790 11.55660 35849 ft 431 kts 275°
2026-05-05 19:15 47.54742 11.46972 35844 ft 430 kts 275°
2026-05-05 19:16 47.55693 11.38225 35856 ft 431 kts 274°
2026-05-05 19:16 47.56637 11.29481 35856 ft 429 kts 274°
2026-05-05 19:17 47.57570 11.20775 35857 ft 429 kts 274°
2026-05-05 19:17 47.58497 11.12060 35837 ft 427 kts 274°
2026-05-05 19:18 47.59409 11.03417 35834 ft 428 kts 274°
2026-05-05 19:18 47.60322 10.94711 35845 ft 428 kts 274°
2026-05-05 19:19 47.61231 10.85960 35859 ft 431 kts 274°
2026-05-05 19:19 47.62137 10.77187 35855 ft 431 kts 274°
2026-05-05 19:20 47.63035 10.68416 35721 ft 428 kts 274°
2026-05-05 19:20 47.63478 10.64054 35019 ft 428 kts 273°
2026-05-05 19:20 47.63921 10.59686 34312 ft 429 kts 273°
2026-05-05 19:21 47.64363 10.55315 33581 ft 429 kts 273°
2026-05-05 19:21 47.64805 10.50934 32780 ft 430 kts 273°
2026-05-05 19:21 47.65240 10.46594 31986 ft 431 kts 273°
2026-05-05 19:21 47.65680 10.42193 31223 ft 432 kts 274°
2026-05-05 19:22 47.66119 10.37778 30458 ft 433 kts 274°
2026-05-05 19:22 47.66558 10.33346 29565 ft 436 kts 274°
2026-05-05 19:22 47.66997 10.28891 28616 ft 438 kts 274°
2026-05-05 19:22 47.67436 10.24421 27765 ft 438 kts 274°
2026-05-05 19:23 47.67874 10.19947 26858 ft 439 kts 274°
2026-05-05 19:23 47.68310 10.15467 26118 ft 437 kts 274°
2026-05-05 19:23 47.68742 10.11006 25450 ft 441 kts 275°
2026-05-05 19:23 47.69174 10.06536 24740 ft 445 kts 275°
2026-05-05 19:24 47.69612 10.01974 24064 ft 447 kts 275°
2026-05-05 19:24 47.70048 9.97424 23381 ft 443 kts 275°
2026-05-05 19:24 47.70477 9.92922 22603 ft 440 kts 275°
2026-05-05 19:24 47.70903 9.88439 21918 ft 436 kts 275°
2026-05-05 19:25 47.71322 9.84007 21258 ft 431 kts 275°
2026-05-05 19:25 47.71735 9.79609 20544 ft 429 kts 275°
2026-05-05 19:25 47.72143 9.75257 19975 ft 424 kts 275°
2026-05-05 19:25 47.72544 9.70959 19854 ft 414 kts 275°
2026-05-05 19:26 47.72867 9.66820 19879 ft 399 kts 269°
2026-05-05 19:26 47.72781 9.62676 19889 ft 405 kts 266°
2026-05-05 19:26 47.72674 9.58468 19877 ft 409 kts 265°
2026-05-05 19:26 47.72559 9.54294 19884 ft 410 kts 265°
2026-05-05 19:27 47.72438 9.50068 19887 ft 410 kts 265°
2026-05-05 19:27 47.72239 9.45844 19869 ft 408 kts 258°
2026-05-05 19:27 47.71336 9.41890 19871 ft 405 kts 240°
2026-05-05 19:27 47.69750 9.38452 19704 ft 401 kts 231°
2026-05-05 19:28 47.68063 9.35257 19492 ft 388 kts 231°
2026-05-05 19:28 47.66405 9.32168 19286 ft 378 kts 231°
2026-05-05 19:28 47.64778 9.29175 19082 ft 367 kts 230°
2026-05-05 19:28 47.63187 9.26270 18852 ft 358 kts 230°
2026-05-05 19:29 47.61646 9.23469 18669 ft 351 kts 230°
2026-05-05 19:29 47.60134 9.20683 18435 ft 343 kts 234°
2026-05-05 19:29 47.59138 9.17525 18204 ft 338 kts 255°
2026-05-05 19:29 47.58708 9.14131 17965 ft 332 kts 257°
2026-05-05 19:30 47.58280 9.10806 17711 ft 325 kts 257°
2026-05-05 19:30 47.57867 9.07540 17452 ft 320 kts 257°
2026-05-05 19:30 47.57466 9.04334 17209 ft 314 kts 258°
2026-05-05 19:30 47.57504 9.01139 16941 ft 313 kts 284°
2026-05-05 19:31 47.58610 8.98396 16686 ft 316 kts 315°
2026-05-05 19:31 47.60539 8.96883 16420 ft 320 kts 346°
2026-05-05 19:31 47.62711 8.97046 16150 ft 322 kts 18°
2026-05-05 19:31 47.64558 8.98856 15866 ft 320 kts 51°
2026-05-05 19:32 47.65491 9.01758 15584 ft 311 kts 84°
2026-05-05 19:32 47.65289 9.04850 15325 ft 297 kts 112°
2026-05-05 19:32 47.64698 9.07766 15066 ft 296 kts 106°
2026-05-05 19:32 47.64260 9.10742 14824 ft 294 kts 105°
2026-05-05 19:33 47.63854 9.13711 14567 ft 294 kts 104°
2026-05-05 19:33 47.63356 9.16629 14294 ft 289 kts 119°
2026-05-05 19:33 47.62141 9.18857 13989 ft 273 kts 153°
2026-05-05 19:33 47.60413 9.19683 13718 ft 257 kts 185°
2026-05-05 19:34 47.58737 9.19083 13464 ft 247 kts 213°
2026-05-05 19:34 47.57505 9.17423 13226 ft 243 kts 237°
2026-05-05 19:34 47.56847 9.15137 13014 ft 244 kts 257°
2026-05-05 19:35 47.56936 9.10079 12911 ft 249 kts 273°
2026-05-05 19:35 47.57120 9.07523 12880 ft 249 kts 274°
2026-05-05 19:35 47.57322 9.04978 12887 ft 249 kts 274°
2026-05-05 19:35 47.57604 9.02442 12842 ft 252 kts 286°
2026-05-05 19:36 47.58598 9.00306 12611 ft 260 kts 319°
2026-05-05 19:36 47.60286 8.99308 12351 ft 270 kts 353°
2026-05-05 19:36 47.62144 8.99818 12072 ft 279 kts 26°
2026-05-05 19:36 47.63597 9.01697 11783 ft 281 kts 58°
2026-05-05 19:37 47.64214 9.04351 11528 ft 277 kts 91°
2026-05-05 19:37 47.63987 9.07150 11287 ft 274 kts 103°
2026-05-05 19:37 47.63690 9.09948 11040 ft 275 kts 102°
2026-05-05 19:37 47.63404 9.12755 10785 ft 275 kts 102°
2026-05-05 19:38 47.63081 9.15540 10525 ft 273 kts 110°
2026-05-05 19:38 47.62155 9.17878 10227 ft 258 kts 144°
2026-05-05 19:38 47.60616 9.18988 10014 ft 242 kts 176°
2026-05-05 19:38 47.58993 9.18717 9919 ft 235 kts 205°
2026-05-05 19:39 47.57680 9.17324 9884 ft 234 kts 230°
2026-05-05 19:39 47.56896 9.15208 9890 ft 238 kts 252°
2026-05-05 19:39 47.56736 9.12799 9889 ft 242 kts 272°
2026-05-05 19:39 47.56949 9.10315 9880 ft 245 kts 279°
2026-05-05 19:40 47.57405 9.07881 9875 ft 246 kts 283°
2026-05-05 19:40 47.57915 9.05453 9900 ft 247 kts 283°
2026-05-05 19:40 47.58427 9.03025 9886 ft 247 kts 283°
2026-05-05 19:40 47.58936 9.00603 9884 ft 247 kts 283°
2026-05-05 19:41 47.59447 8.98175 9886 ft 247 kts 283°
2026-05-05 19:41 47.59956 8.95748 9889 ft 247 kts 283°
2026-05-05 19:41 47.60466 8.93322 9888 ft 246 kts 283°
2026-05-05 19:41 47.60971 8.90924 9643 ft 245 kts 283°
2026-05-05 19:42 47.61481 8.88505 9356 ft 243 kts 283°
2026-05-05 19:42 47.61982 8.86122 9055 ft 242 kts 283°
2026-05-05 19:42 47.62471 8.83783 8914 ft 240 kts 283°
2026-05-05 19:42 47.62970 8.81426 8923 ft 239 kts 283°
2026-05-05 19:43 47.63493 8.79101 8900 ft 236 kts 283°
2026-05-05 19:43 47.64014 8.76801 8890 ft 235 kts 283°
2026-05-05 19:43 47.64536 8.74498 8897 ft 236 kts 283°
2026-05-05 19:43 47.65057 8.72195 8898 ft 236 kts 283°
2026-05-05 19:44 47.65573 8.69892 8899 ft 235 kts 283°
2026-05-05 19:44 47.66084 8.67582 8895 ft 236 kts 283°
2026-05-05 19:44 47.66603 8.65268 8912 ft 236 kts 283°
2026-05-05 19:44 47.67119 8.62964 8902 ft 235 kts 283°
2026-05-05 19:45 47.67611 8.60656 8895 ft 233 kts 276°
2026-05-05 19:45 47.67521 8.58373 8867 ft 223 kts 247°
2026-05-05 19:45 47.66620 8.56548 8878 ft 223 kts 217°
2026-05-05 19:45 47.65165 8.55721 8889 ft 231 kts 188°
2026-05-05 19:46 47.63565 8.56167 8887 ft 243 kts 158°
2026-05-05 19:46 47.62262 8.57830 8894 ft 257 kts 129°
2026-05-05 19:46 47.61499 8.60274 8922 ft 266 kts 114°
2026-05-05 19:46 47.60902 8.62875 8911 ft 267 kts 113°
2026-05-05 19:47 47.60315 8.65489 8907 ft 267 kts 113°
2026-05-05 19:47 47.59725 8.68104 8905 ft 268 kts 113°
2026-05-05 19:47 47.59136 8.70723 8903 ft 268 kts 113°
2026-05-05 19:47 47.58554 8.73305 8903 ft 268 kts 113°
2026-05-05 19:48 47.57962 8.75916 8903 ft 266 kts 113°
2026-05-05 19:48 47.57375 8.78508 8600 ft 266 kts 114°
2026-05-05 19:48 47.56783 8.81091 8272 ft 265 kts 113°
2026-05-05 19:48 47.56172 8.83651 8034 ft 261 kts 113°
2026-05-05 19:49 47.55559 8.86168 7745 ft 260 kts 113°
2026-05-05 19:49 47.55148 8.87824 7537 ft 258 kts 117°
2026-05-05 19:49 47.53662 8.90410 7107 ft 243 kts 157°
2026-05-05 19:49 47.52085 8.91066 6753 ft 234 kts 180°
2026-05-05 19:50 47.50452 8.91157 6405 ft 234 kts 183°
2026-05-05 19:50 47.48831 8.91212 6190 ft 228 kts 184°
2026-05-05 19:50 47.47311 8.91270 6042 ft 211 kts 183°
2026-05-05 19:50 47.45955 8.90931 5709 ft 193 kts 212°
2026-05-05 19:51 47.45083 8.89596 5427 ft 177 kts 245°
2026-05-05 19:51 47.44651 8.87894 5068 ft 177 kts 252°
2026-05-05 19:51 47.44282 8.86154 5037 ft 179 kts 253°
2026-05-05 19:51 47.43985 8.84377 5008 ft 179 kts 262°
2026-05-05 19:52 47.43915 8.82549 4974 ft 178 kts 271°
2026-05-05 19:52 47.43992 8.80710 4805 ft 180 kts 274°
2026-05-05 19:52 47.44108 8.78883 4574 ft 178 kts 275°
2026-05-05 19:52 47.44233 8.77066 4338 ft 178 kts 275°
2026-05-05 19:53 47.44362 8.75257 4073 ft 175 kts 273°
2026-05-05 19:53 47.44484 8.73530 3844 ft 169 kts 273°
2026-05-05 19:53 47.44606 8.71820 3601 ft 166 kts 273°
2026-05-05 19:53 47.44725 8.70167 3408 ft 154 kts 273°
2026-05-05 19:54 47.44830 8.68674 3215 ft 142 kts 272°
2026-05-05 19:54 47.44932 8.67220 2970 ft 142 kts 273°
2026-05-05 19:54 47.45037 8.65764 2760 ft 144 kts 272°
2026-05-05 19:54 47.45103 8.64788 2607 ft 145 kts 273°
2026-05-05 19:55 47.45211 8.63298 2392 ft 146 kts 274°
2026-05-05 19:55 47.45327 8.61808 2197 ft 145 kts 276°
2026-05-05 19:55 47.45446 8.60331 1996 ft 141 kts 273°
2026-05-05 19:55 47.45565 8.58500 1690 ft 135 kts 272°
2026-05-05 19:56 47.45654 8.57121 1479 ft 133 kts 275°
2026-05-05 19:56 47.45743 8.55868 1417 ft 101 kts 276°
2026-05-05 19:56 47.45783 8.55320 1402 ft 65 kts 276°
2026-05-05 19:56 47.45840 8.54802 1396 ft 26 kts 310°
2026-05-05 19:57 47.45893 8.54751 1401 ft 0 kts 342°
2026-05-05 19:57 47.45901 8.54753 1398 ft 4 kts 12°
2026-05-05 19:57 47.45922 8.54830 1393 ft 12 kts 95°
2026-05-05 19:57 47.45921 8.54841 1393 ft 0 kts 95°
2026-05-05 19:58 47.45921 8.54849 1393 ft 1 kts 94°
2026-05-05 19:58 47.45920 8.54865 1401 ft 2 kts 94°
2026-05-05 19:59 47.45918 8.54908 1397 ft 8 kts 96°
2026-05-05 19:59 47.45913 8.54998 1396 ft 10 kts 93°
2026-05-05 19:59 47.45930 8.55126 1408 ft 16 kts 25°
2026-05-05 19:59 47.46021 8.55085 1395 ft 5 kts 334°
2026-05-05 20:00 47.46046 8.55100 1395 ft 4 kts 62°
2026-05-05 20:00 47.46058 8.55137 1399 ft 4 kts 63°
2026-05-05 20:00 47.46068 8.55169 1404 ft 0 kts 64°